Regional Weather Roundup
Issued by NWS

Home | Current Version | Previous Version | Text Only | Print | Product List | Glossary On
Versions: 1 2 3 4 5 6 7 8 9 10 11 12 13 14 15 16 17 18 19 20 21 22 23 24 25 26 27 28 29 30 31 32 33 34 35 36 37 38 39 40 41 42 43 44 45 46 47 48 49 50
000
ASUS42 KKEY 052310
RWRKEY

FLORIDA REGIONAL WEATHER ROUNDUP FOR THE FLORIDA KEYS
NATIONAL WEATHER SERVICE KEY WEST FLORIDA
700 PM EDT SUN JUL 05 2015

...SOUTH FLORIDA AND THE KEYS...

CITY           SKY/WX    TMP DP  RH WIND       PRES   REMARKS
FORT MYERS     PTSUNNY   87  77  72 W14       30.07S THUNDER HX  99
SW REGIONAL AP MOSUNNY   87  75  67 W7        30.08S THUNDER HX  96
NAPLES         MOSUNNY   88  76  67 W9        30.08S HX  99
MIAMI          MOSUNNY   87  73  62 E14G20    30.11S HX  94
WEST KENDALL   SUNNY     86  73  65 SE13      30.11R HX  93
HOMESTEAD      SUNNY     87  75  66 E8        30.11R HX  96
MARATHON       MOSUNNY   87  77  72 E9G16     30.09S HX  99
BOCA CHICA NAS MOSUNNY   87  77  72 E15       30.09S HX  99
KEY WEST INTL  MOSUNNY   87  79  76 E13       30.09S HX 101

...INTERNATIONAL WEATHER...

CITY           SKY/WX    TMP DP  RH WIND       PRES   REMARKS
NASSAU BAHAMAS MOSUNNY   86  73  66 SE12      30.14F HX  93
CANCUN MEXICO  MOSUNNY   86  77  74 E9        30.04F HX  97
COZUMEL MEXICO PTSUNNY   79  77  94 CALM      30.03F

ADJACENT COASTAL WATERS...

STATION/POSITION TIME  SKY/WX   TEMP    WIND        PRES    WAVE
                                AIR SEA DIR/SP/G            HT/PER
                 (UTC)          (F)     (DEG/KT/KT) (MB)    (FT/S)
PULASKI SHOAL LI 2200            86     130/ 10/ 12 1018.9F
SAND KEY         2250            85     100/ 16/ 18 1018.7S
SOMBRERO KEY     2300            85     110/ 16/ 17 1019.7R
LONG KEY         2200            85 89  110/ 12/ 14 1019.8F
MOLASSES REEF    2300            85 86  110/ 10/ 11 1019.2F
FOWEY ROCKS      NOT AVBL

$$


USA.gov is the U.S. government's official web portal to all federal, state and local government web resources and services.